EW6013 Weather Reports


Display with metric or nautical units.
time (UTC)temp
F
wind
direction
speed
MPH
gust
MPH
rain 1hr
in
rain 24hr
in
rain mn
in
humidity
%
barometer
mb
20210619040516 66 0.0 0.0 0.00 0.00 0.00 81 1007.2
20210619040016 67 0.0 0.0 0.00 0.00 0.00 80 1007.3
20210619035516 67 0.0 0.0 0.00 0.00 0.00 79 1007.3
20210619035016 68 0.0 0.0 0.00 0.00 0.00 77 1007.4
20210619034516 69 0.0 0.0 0.00 0.00 0.00 73 1007.5
20210619034016 69 0.0 0.0 0.00 0.00 0.00 72 1007.6
20210619033516 70 0.0 0.0 0.00 0.00 0.00 68 1007.7
20210619033016 70 0.0 0.0 0.00 0.00 0.00 65 1007.7
20210619032516 71 0.0 0.0 0.00 0.00 0.00 63 1007.7
20210619032016 71 0.0 0.0 0.00 0.00 0.00 62 1007.6
20210619031516 71 0.0 0.0 0.00 0.00 0.00 61 1007.6
20210619031016 71 0.0 0.0 0.00 0.00 0.00 60 1007.6
20210619030516 71 0.0 0.0 0.00 0.00 0.00 59 1007.6
20210619030016 71 0.0 0.0 0.00 0.00 0.00 58 1007.6
20210619025516 71 0.0 0.0 0.00 0.00 0.00 59 1007.6
20210619025016 72 0.0 0.0 0.00 0.00 0.00 58 1007.5
20210619024515 72 0.0 0.0 0.00 0.00 0.00 57 1007.6
20210619024020 72 0.0 0.0 0.00 0.00 0.00 57 1007.6
20210619023126 72 0.0 0.0 0.00 0.00 0.00 56 1007.7
20210619022515 72 0.0 0.0 0.00 0.00 0.00 56 1007.8
20210619022015 72 0.0 2.0 0.00 0.00 0.00 56 1007.7
20210619021516 72 184 0.0 3.0 0.00 0.00 0.00 57 1007.7
20210619021015 72 186 0.0 3.0 0.00 0.00 0.00 57 1007.7
20210619020516 72 155 0.0 3.0 0.00 0.00 0.00 57 1007.7
20210619020016 72 0.0 0.0 0.00 0.00 0.00 57 1007.6
20210619015515 73 0.0 1.0 0.00 0.00 0.00 55 1007.6
20210619015015 73 101 0.0 1.0 0.00 0.00 0.00 55 1007.6
20210619014515 72 212 0.0 7.0 0.00 0.00 0.00 55 1007.6
20210619014015 72 189 1.0 7.0 0.00 0.00 0.00 55 1007.6
20210619013516 73 198 0.0 2.0 0.00 0.00 0.00 55 1007.6
20210619013015 73 0.0 0.0 0.00 0.00 0.00 55 1007.5
20210619012515 73 0.0 1.0 0.00 0.00 0.00 55 1007.4
20210619012016 73 161 0.0 1.0 0.00 0.00 0.00 56 1007.4
20210619011516 73 0.0 4.0 0.00 0.00 0.00 56 1007.4
20210619011015 73 187 0.0 6.0 0.00 0.00 0.00 56 1007.3
20210619010516 72 177 1.0 6.0 0.00 0.00 0.00 56 1007.3
20210619010016 72 0.0 0.0 0.00 0.00 0.00 58 1007.3
20210619005515 72 0.0 0.0 0.00 0.00 0.00 59 1007.3
20210619005015 73 0.0 0.0 0.00 0.00 0.00 59 1007.3
20210619004515 73 0.0 0.0 0.00 0.00 0.00 58 1007.2
20210619004015 73 0.0 0.0 0.00 0.00 0.00 59 1007.2
20210619003515 73 0.0 0.0 0.00 0.00 0.00 58 1007.2
20210619003016 73 0.0 0.0 0.00 0.00 0.00 57 1007.3
20210619002515 73 0.0 0.0 0.00 0.00 0.00 59 1007.3
20210619002015 73 0.0 0.0 0.00 0.00 0.00 59 1007.3
20210619001515 73 0.0 0.0 0.00 0.00 0.00 59 1007.3
20210619001015 73 0.0 0.0 0.00 0.00 0.00 59 1007.3
20210619000515 73 0.0 0.0 0.00 0.00 0.00 59 1007.4
20210619000015 74 0.0 0.0 0.00 0.00 0.00 59 1007.4
20210618235515 74 0.0 0.0 0.00 0.00 0.00 59 1007.3
20210618235015 74 0.0 0.0 0.00 0.00 0.00 58 1007.3
20210618234515 74 0.0 0.0 0.00 0.00 0.00 58 1007.4
20210618234015 74 0.0 0.0 0.00 0.00 0.00 60 1007.5
20210618233515 74 0.0 0.0 0.00 0.00 0.00 58 1007.5
20210618233015 74 0.0 3.0 0.00 0.00 0.00 59 1007.5
20210618232515 74 162 0.0 3.0 0.00 0.00 0.00 57 1007.5
20210618232015 74 0.0 0.0 0.00 0.00 0.00 60 1007.4
20210618231516 74 0.0 0.0 0.00 0.00 0.00 61 1007.4
20210618231015 75 0.0 0.0 0.00 0.00 0.00 60 1007.4
20210618230515 75 0.0 0.0 0.00 0.00 0.00 61 1007.4
20210618230015 75 0.0 0.0 0.00 0.00 0.00 61 1007.4
20210618225515 75 0.0 0.0 0.00 0.00 0.00 62 1007.4
20210618225015 76 0.0 0.0 0.00 0.00 0.00 61 1007.5
20210618224515 76 0.0 0.0 0.00 0.00 0.00 60 1007.5
20210618224015 76 0.0 0.0 0.00 0.00 0.00 59 1007.5
20210618223515 76 0.0 0.0 0.00 0.00 0.00 59 1007.5
20210618223015 77 0.0 0.0 0.00 0.00 0.00 59 1007.5
20210618222515 77 0.0 0.0 0.00 0.00 0.00 56 1007.6
20210618222015 77 0.0 0.0 0.00 0.00 0.00 56 1007.7
20210618221515 77 0.0 0.0 0.00 0.00 0.00 54 1007.9
20210618221015 78 0.0 0.0 0.00 0.00 0.00 53 1008.0
20210618220515 78 0.0 0.0 0.00 0.00 0.00 52 1008.0
20210618220015 79 0.0 0.0 0.00 0.00 0.00 50 1008.1
20210618215515 79 0.0 0.0 0.00 0.00 0.00 50 1008.1
20210618215015 79 0.0 1.0 0.00 0.00 0.00 48 1008.2
20210618214515 80 205 0.0 1.0 0.00 0.00 0.00 47 1008.2
20210618214015 80 205 0.0 3.0 0.00 0.00 0.00 43 1008.3
20210618213515 80 186 1.0 3.0 0.00 0.00 0.00 43 1008.3
20210618213015 80 247 1.0 3.0 0.00 0.00 0.00 43 1008.3
20210618212515 80 231 1.0 4.0 0.00 0.00 0.00 43 1008.4
20210618212015 80 259 1.0 6.0 0.00 0.00 0.00 42 1008.5
20210618211515 80 206 2.0 6.0 0.00 0.00 0.00 41 1008.5
20210618211015 80 192 1.0 5.0 0.00 0.00 0.00 42 1008.6
20210618210515 80 233 1.0 6.0 0.00 0.00 0.00 41 1008.6
20210618210015 80 184 2.0 6.0 0.00 0.00 0.00 42 1008.7
20210618205515 80 0.0 0.0 0.00 0.00 0.00 42 1008.7
20210618205015 80 0.0 3.0 0.00 0.00 0.00 43 1008.7
20210618204516 80 201 0.0 6.0 0.00 0.00 0.00 43 1008.6
20210618204015 80 237 1.0 6.0 0.00 0.00 0.00 43 1008.6
20210618203515 80 260 0.0 2.0 0.00 0.00 0.00 43 1008.7
20210618203015 80 223 0.0 5.0 0.00 0.00 0.00 42 1008.7
20210618202515 81 178 1.0 6.0 0.00 0.00 0.00 41 1008.7
20210618202015 81 231 1.0 6.0 0.00 0.00 0.00 41 1008.7
20210618201515 81 189 1.0 7.0 0.00 0.00 0.00 42 1008.8
20210618201015 81 216 2.0 7.0 0.00 0.00 0.00 41 1008.9
20210618200515 81 208 2.0 7.0 0.00 0.00 0.00 40 1008.9
20210618200015 82 199 1.0 5.0 0.00 0.00 0.00 41 1008.9
20210618195515 82 0.0 0.0 0.00 0.00 0.00 40 1008.9
20210618195015 81 0.0 5.0 0.00 0.00 0.00 41 1009.0
20210618194515 81 202 1.0 8.0 0.00 0.00 0.00 40 1009.2
20210618194015 81 221 2.0 8.0 0.00 0.00 0.00 39 1009.2
20210618193515 81 232 2.0 8.0 0.00 0.00 0.00 38 1009.2
20210618193015 82 213 3.0 8.0 0.00 0.00 0.00 39 1009.3
20210618192515 82 231 1.0 5.0 0.00 0.00 0.00 38 1009.3
20210618192015 82 231 1.0 5.0 0.00 0.00 0.00 38 1009.4
20210618191515 82 234 1.0 8.0 0.00 0.00 0.00 38 1009.5
20210618191015 81 273 2.0 8.0 0.00 0.00 0.00 38 1009.6
20210618190517 81 201 1.0 5.0 0.00 0.00 0.00 37 1009.7
20210618190017 81 240 1.0 5.0 0.00 0.00 0.00 38 1009.7
20210618185517 81 185 2.0 7.0 0.00 0.00 0.00 36 1009.7
20210618185017 81 171 2.0 8.0 0.00 0.00 0.00 38 1009.8
20210618184516 81 201 2.0 8.0 0.00 0.00 0.00 37 1010.1
20210618184017 81 226 2.0 8.0 0.00 0.00 0.00 36 1010.2
20210618183517 80 265 2.0 8.0 0.00 0.00 0.00 37 1010.2
20210618183017 80 229 1.0 8.0 0.00 0.00 0.00 39 1010.3
20210618182517 80 206 2.0 10.0 0.00 0.00 0.00 36 1010.4
20210618182017 80 189 3.0 10.0 0.00 0.00 0.00 36 1010.5
20210618181607 80 208 2.0 9.0 0.00 0.00 0.00 36 1010.5
20210618181017 80 224 3.0 9.0 0.00 0.00 0.00 38 1010.4
20210618180517 80 223 1.0 7.0 0.00 0.00 0.00 39 1010.3
20210618180017 80 212 1.0 8.0 0.00 0.00 0.00 39 1010.4
20210618175516 80 189 2.0 8.0 0.00 0.00 0.00 40 1010.3
20210618175016 80 216 1.0 8.0 0.00 0.00 0.00 39 1010.4
20210618174517 80 200 3.0 8.0 0.00 0.00 0.00 37 1010.5
20210618174017 80 198 2.0 6.0 0.00 0.00 0.00 39 1010.5
20210618173516 80 261 1.0 7.0 0.00 0.00 0.00 40 1010.5
20210618173017 80 262 2.0 10.0 0.00 0.00 0.00 41 1010.5
20210618172517 79 186 2.0 10.0 0.00 0.00 0.00 40 1010.6
20210618172016 80 195 2.0 10.0 0.00 0.00 0.00 40 1010.7
20210618171516 80 229 2.0 9.0 0.00 0.00 0.00 39 1010.7
20210618171017 80 203 1.0 5.0 0.00 0.00 0.00 40 1010.7
20210618170516 80 192 1.0 5.0 0.00 0.00 0.00 43 1010.7
20210618170016 79 218 2.0 5.0 0.00 0.00 0.00 44 1010.6
20210618165516 79 237 0.0 7.0 0.00 0.00 0.00 42 1010.8
20210618165016 78 184 2.0 7.0 0.00 0.00 0.00 45 1010.9
20210618164516 78 0.0 0.0 0.00 0.00 0.00 43 1011.0
20210618164016 78 0.0 2.0 0.00 0.00 0.00 43 1011.0
20210618163517 78 342 0.0 3.0 0.00 0.00 0.00 42 1011.1
20210618163016 78 191 1.0 5.0 0.00 0.00 0.00 44 1011.1
20210618162516 78 243 1.0 5.0 0.00 0.00 0.00 43 1011.2
20210618162016 78 263 0.0 3.0 0.00 0.00 0.00 42 1011.3
20210618161516 78 189 1.0 4.0 0.00 0.00 0.00 42 1011.4
20210618161016 78 257 1.0 6.0 0.00 0.00 0.00 43 1011.5
20210618160516 77 216 1.0 7.0 0.00 0.00 0.00 43 1011.6
20210618160016 77 210 1.0 7.0 0.00 0.00 0.00 44 1011.5
20210618155516 77 0.0 0.0 0.00 0.00 0.00 43 1011.6
20210618155016 77 0.0 0.0 0.00 0.00 0.00 43 1011.5
20210618154516 77 0.0 0.0 0.00 0.00 0.00 45 1011.5
20210618154016 77 0.0 0.0 0.00 0.00 0.00 46 1011.6
20210618153516 76 0.0 2.0 0.00 0.00 0.00 45 1011.6
20210618153016 76 182 0.0 7.0 0.00 0.00 0.00 48 1011.6
20210618152516 76 176 2.0 7.0 0.00 0.00 0.00 45 1011.7
20210618152016 76 195 1.0 6.0 0.00 0.00 0.00 46 1011.8
20210618151516 76 226 0.0 4.0 0.00 0.00 0.00 46 1011.9
20210618151016 76 208 1.0 5.0 0.00 0.00 0.00 45 1012.0
20210618150516 76 192 1.0 5.0 0.00 0.00 0.00 44 1012.0
20210618150016 76 223 2.0 7.0 0.00 0.00 0.00 44 1012.0
20210618145516 76 288 2.0 11.0 0.00 0.00 0.00 46 1011.9
20210618145016 75 305 2.0 11.0 0.00 0.00 0.00 46 1012.0
20210618144516 75 337 0.0 4.0 0.00 0.00 0.00 47 1012.0
20210618144016 74 275 1.0 5.0 0.00 0.00 0.00 45 1011.9
20210618143516 74 187 1.0 5.0 0.00 0.00 0.00 45 1011.9
20210618143016 74 196 1.0 5.0 0.00 0.00 0.00 46 1012.0
20210618142516 74 180 1.0 5.0 0.00 0.00 0.00 45 1012.1
20210618142016 74 182 2.0 6.0 0.00 0.00 0.00 46 1012.1
20210618141516 73 178 1.0 6.0 0.00 0.00 0.00 50 1012.1
20210618141016 73 214 2.0 6.0 0.00 0.00 0.00 47 1012.2
20210618140516 73 174 1.0 6.0 0.00 0.00 0.00 50 1012.2
20210618140016 72 174 1.0 5.0 0.00 0.00 0.00 49 1012.3
20210618135516 72 187 1.0 5.0 0.00 0.00 0.00 54 1012.3
20210618135016 71 165 1.0 5.0 0.00 0.00 0.00 56 1012.4
20210618134516 71 152 1.0 5.0 0.00 0.00 0.00 56 1012.6
20210618134016 70 176 2.0 6.0 0.00 0.00 0.00 56 1012.7
20210618133516 69 167 1.0 6.0 0.00 0.00 0.00 58 1012.7
20210618133016 69 9 1.0 2.0 0.00 0.00 0.00 60 1012.7
20210618132516 68 344 0.0 2.0 0.00 0.00 0.00 63 1012.9
20210618132016 67 5 0.0 1.0 0.00 0.00 0.00 64 1012.9
20210618131516 66 0.0 4.0 0.00 0.00 0.00 65 1013.0
20210618131016 65 161 1.0 5.0 0.00 0.00 0.00 70 1013.0
20210618130516 64 320 0.0 5.0 0.00 0.00 0.00 74 1013.1
20210618130016 63 285 0.0 2.0 0.00 0.00 0.00 75 1013.2
20210618125516 63 309 0.0 2.0 0.00 0.00 0.00 76 1013.2
20210618125016 62 321 0.0 1.0 0.00 0.00 0.00 76 1013.2
20210618124516 61 321 0.0 2.0 0.00 0.00 0.00 78 1013.2
20210618124016 61 321 0.0 3.0 0.00 0.00 0.00 80 1013.2
20210618123516 60 327 0.0 3.0 0.00 0.00 0.00 82 1013.3
20210618123016 59 351 0.0 2.0 0.00 0.00 0.00 86 1013.4
20210618122516 58 0.0 0.0 0.00 0.00 0.00 88 1013.3
20210618122016 57 0.0 1.0 0.00 0.00 0.00 89 1013.4
20210618121516 56 294 0.0 1.0 0.00 0.00 0.00 90 1013.2
20210618121016 56 0.0 2.0 0.00 0.00 0.00 92 1013.1
20210618120516 55 294 0.0 2.0 0.00 0.00 0.00 94 1013.1
20210618120016 54 0.0 0.0 0.00 0.00 0.00 95 1013.1
20210618115515 54 0.0 0.0 0.00 0.00 0.00 95 1013.2
20210618115016 53 0.0 0.0 0.00 0.00 0.00 95 1013.2
20210618114516 53 0.0 0.0 0.00 0.00 0.00 96 1013.3
20210618114015 52 0.0 0.0 0.00 0.00 0.00 96 1013.3
20210618113516 52 0.0 0.0 0.00 0.00 0.00 96 1013.5
20210618113016 51 0.0 0.0 0.00 0.00 0.00 96 1013.6
20210618112516 51 0.0 0.0 0.00 0.00 0.00 96 1013.6
20210618112016 51 0.0 0.0 0.00 0.00 0.00 96 1013.6
20210618111516 50 0.0 0.0 0.00 0.00 0.00 96 1013.6
20210618111016 50 0.0 0.0 0.00 0.00 0.00 96 1013.6
20210618110515 50 0.0 0.0 0.00 0.00 0.00 96 1013.6
20210618110015 50 0.0 0.0 0.00 0.00 0.00 96 1013.6
20210618105516 49 0.0 0.0 0.00 0.00 0.00 96 1013.6
20210618105016 49 0.0 0.0 0.00 0.00 0.00 96 1013.6
20210618104515 49 0.0 0.0 0.00 0.00 0.00 96 1013.6
20210618104016 49 0.0 0.0 0.00 0.00 0.00 96 1013.6
20210618103515 48 0.0 0.0 0.00 0.00 0.00 95 1013.5
20210618103015 48 0.0 0.0 0.00 0.00 0.00 95 1013.4
20210618102515 48 0.0 0.0 0.00 0.00 0.00 95 1013.5
20210618102015 48 0.0 0.0 0.00 0.00 0.00 95 1013.5
20210618101515 47 0.0 0.0 0.00 0.00 0.00 95 1013.5
20210618101015 47 0.0 0.0 0.00 0.00 0.00 95 1013.5
20210618100515 47 0.0 0.0 0.00 0.00 0.00 95 1013.6
20210618100015 47 0.0 0.0 0.00 0.00 0.00 94 1013.6
20210618095515 47 0.0 0.0 0.00 0.00 0.00 94 1013.5
20210618095015 47 0.0 0.0 0.00 0.00 0.00 94 1013.4
20210618094515 47 0.0 0.0 0.00 0.00 0.00 94 1013.4
20210618094016 47 0.0 0.0 0.00 0.00 0.00 94 1013.4
20210618093515 47 0.0 0.0 0.00 0.00 0.00 93 1013.3
20210618093015 47 0.0 0.0 0.00 0.00 0.00 93 1013.3
20210618092515 47 0.0 0.0 0.00 0.00 0.00 93 1013.3
20210618092015 48 0.0 0.0 0.00 0.00 0.00 93 1013.3
20210618091515 48 0.0 0.0 0.00 0.00 0.00 93 1013.3
20210618091015 48 0.0 0.0 0.00 0.00 0.00 93 1013.2
20210618090515 48 0.0 0.0 0.00 0.00 0.00 93 1013.1
20210618090015 48 0.0 0.0 0.00 0.00 0.00 93 1013.0
20210618085515 48 0.0 0.0 0.00 0.00 0.00 93 1012.9
20210618085015 48 0.0 0.0 0.00 0.00 0.00 93 1013.0
20210618084515 48 0.0 0.0 0.00 0.00 0.00 93 1013.0
20210618084015 48 0.0 0.0 0.00 0.00 0.00 93 1013.0
20210618083515 49 0.0 0.0 0.00 0.00 0.00 93 1013.0
20210618083015 49 0.0 0.0 0.00 0.00 0.00 93 1013.0
20210618082515 49 0.0 0.0 0.00 0.00 0.00 93 1013.0
20210618082015 49 0.0 0.0 0.00 0.00 0.00 92 1012.9
20210618081515 49 0.0 0.0 0.00 0.00 0.00 92 1012.9
20210618081015 49 0.0 0.0 0.00 0.00 0.00 92 1012.9
20210618080515 49 0.0 0.0 0.00 0.00 0.00 92 1013.0
20210618080015 49 0.0 0.0 0.00 0.00 0.00 92 1013.0
20210618075515 50 0.0 0.0 0.00 0.00 0.00 92 1012.9
20210618075015 50 0.0 0.0 0.00 0.00 0.00 92 1012.8
20210618074515 50 0.0 0.0 0.00 0.00 0.00 92 1012.8
20210618074015 50 0.0 0.0 0.00 0.00 0.00 92 1012.8
20210618073515 50 0.0 0.0 0.00 0.00 0.00 92 1012.8
20210618073015 50 0.0 0.0 0.00 0.00 0.00 91 1012.9
20210618072515 50 0.0 0.0 0.00 0.00 0.00 91 1012.8
20210618072015 50 0.0 0.0 0.00 0.00 0.00 91 1012.7
20210618071515 51 0.0 0.0 0.00 0.00 0.00 90 1012.6
20210618071015 51 0.0 0.0 0.00 0.00 0.00 90 1012.7
20210618070515 51 0.0 0.0 0.00 0.00 0.00 90 1012.7
20210618070015 51 0.0 0.0 0.00 0.00 0.00 90 1012.7
20210618065515 51 0.0 0.0 0.00 0.00 0.00 90 1012.6
20210618065015 51 0.0 0.0 0.00 0.00 0.00 90 1012.5
20210618064515 52 0.0 0.0 0.00 0.00 0.00 89 1012.5
20210618064015 52 0.0 0.0 0.00 0.00 0.00 88 1012.5
20210618063515 52 0.0 0.0 0.00 0.00 0.00 88 1012.4
20210618063015 52 0.0 0.0 0.00 0.00 0.00 88 1012.4
20210618062515 52 0.0 0.0 0.00 0.00 0.00 88 1012.4
20210618062015 53 0.0 0.0 0.00 0.00 0.00 88 1012.3
20210618061515 53 0.0 0.0 0.00 0.00 0.00 87 1012.3
20210618061015 53 0.0 0.0 0.00 0.00 0.00 87 1012.2
20210618060515 53 0.0 0.0 0.00 0.00 0.00 86 1012.3
20210618060015 53 0.0 0.0 0.00 0.00 0.00 86 1012.3
20210618055515 54 0.0 0.0 0.00 0.00 0.00 85 1012.4
20210618055015 54 0.0 0.0 0.00 0.00 0.00 85 1012.4
20210618054515 54 0.0 0.0 0.00 0.00 0.00 85 1012.4
20210618054015 54 0.0 0.0 0.00 0.00 0.00 84 1012.5
20210618053515 55 0.0 0.0 0.00 0.00 0.00 84 1012.4
20210618053015 55 0.0 0.0 0.00 0.00 0.00 84 1012.4
20210618052514 55 0.0 0.0 0.00 0.00 0.00 83 1012.4
20210618052015 55 0.0 0.0 0.00 0.00 0.00 82 1012.4
20210618051515 56 0.0 0.0 0.00 0.00 0.00 81 1012.5
20210618051015 56 0.0 0.0 0.00 0.00 0.00 81 1012.4
20210618050515 56 0.0 0.0 0.00 0.00 0.00 80 1012.4
20210618050014 57 0.0 0.0 0.00 0.00 0.00 79 1012.4
20210618045517 57 0.0 0.0 0.00 0.00 0.00 78 1012.4
20210618045017 57 0.0 0.0 0.00 0.00 0.00 75 1012.4
20210618044517 57 0.0 0.0 0.00 0.00 0.00 73 1012.3
20210618044017 57 0.0 0.0 0.00 0.00 0.00 74 1012.4
20210618043517 57 0.0 0.0 0.00 0.00 0.00 73 1012.3
20210618043017 58 0.0 0.0 0.00 0.00 0.00 73 1012.3
20210618042517 58 0.0 0.0 0.00 0.00 0.00 74 1012.3
20210618042016 58 0.0 1.0 0.00 0.00 0.00 71 1012.3
20210618041517 58 294 0.0 1.0 0.00 0.00 0.00 72 1012.3
20210618041016 58 0.0 1.0 0.00 0.00 0.00 72 1012.3